This demonstration page uses our WeatherBlox Daily Observations layout. Learn more.

Left ArrowRight Arrow

38.89511, -77.03637

Hourly Observations for November 17, 2015

Temp ( °F °C ) Dew Point ( °F °C ) Humidity (%) Winds ( mph kmh ) Pressure ( in mb ) Visibility ( mi km ) Precip ( " mm )
12:52 am 00:52 Cloudy 48 8.9 39 3.9 71 71 N N/A 30.29 1026 10 16 N/A
1:52 am 01:52 Mostly Cloudy 46 7.8 39 3.9 77 77 N N/A 30.30 1026 10 16 N/A
2:52 am 02:52 Mostly Cloudy 47 8.3 39 3.9 74 74 N N/A 30.32 1027 10 16 N/A
3:52 am 03:52 Mostly Cloudy 48 8.9 39 3.9 71 71 N N/A 30.33 1027 10 16 N/A
4:52 am 04:52 Mostly Cloudy 47 8.3 40 4.4 77 77 NNE 3 6 30.34 1028 10 16 N/A
5:52 am 05:52 Cloudy 47 8.3 40 4.4 77 77 NNE 5 7 30.37 1029 10 16 N/A
6:52 am 06:52 Partly Cloudy 48 8.9 41 5 77 77 NE 6 9 30.39 1029 10 16 N/A
7:52 am 07:52 Mostly Cloudy 51 10.6 41 5 69 69 NE 9 15 30.41 1030 10 16 N/A
8:52 am 08:52 Mostly Cloudy 53 11.7 41 5 64 64 NE 10 17 30.42 1030 10 16 N/A
9:52 am 09:52 Mostly Cloudy 56 13.3 44 6.7 65 65 ENE 9 15 30.43 1031 10 16 N/A
10:52 am 10:52 Mostly Cloudy 58 14.4 46 7.8 65 65 E 10 17 30.45 1031 10 16 N/A
11:52 am 11:52 Cloudy 60 15.6 46 7.8 60 60 E 8 13 30.44 1031 10 16 N/A
12:52 pm 12:52 Mostly Cloudy 60 15.6 47 8.3 62 62 E 8 13 30.42 1030 10 16 N/A
1:38 pm 13:38 Mostly Cloudy 61 16 48 9 63 63 ENE 13 20 30.42 1030 10 16 N/A
1:52 pm 13:52 Mostly Cloudy 60 15.6 48 8.9 65 65 E 13 20 30.43 1030 10 16 N/A
2:52 pm 14:52 Mostly Cloudy 59 15 48 8.9 67 67 E 12 19 30.42 1030 10 16 N/A
3:52 pm 15:52 Mostly Cloudy 58 14.4 47 8.3 67 67 E 10 17 30.43 1030 10 16 N/A
4:52 pm 16:52 Cloudy 57 13.9 47 8.3 69 69 E 12 19 30.44 1031 10 16 N/A
5:35 pm 17:35 Cloudy 56 13.3 46 7.8 70 70 E 14 22 30.45 1031 10 16 N/A
5:52 pm 17:52 Cloudy 55 12.8 46 7.8 72 72 ESE 12 19 30.47 1032 10 16 N/A
6:52 pm 18:52 Cloudy 55 12.8 45 7.2 69 69 ESE 9 15 30.48 1032 10 16 N/A
7:42 pm 19:42 Mostly Cloudy 54 12 43 6 67 67 E 8 13 30.48 1032 10 16 N/A
7:52 pm 19:52 Mostly Cloudy 53 11.7 44 6.7 72 72 E 12 19 30.48 1032 10 16 N/A
8:52 pm 20:52 Mostly Cloudy 52 11.1 42 5.6 69 69 E 9 15 30.47 1032 10 16 N/A
9:52 pm 21:52 Mostly Cloudy 51 10.6 42 5.6 71 71 E 6 9 30.48 1032 10 16 N/A
10:52 pm 22:52 Cloudy 50 10 43 6.1 77 77 ENE 6 9 30.46 1031 10 16 N/A
11:52 pm 23:52 Mostly Cloudy 50 10 42 5.6 74 74 NE 7 11 30.45 1031 10 16 N/A

Powered by AerisWeather